Terug naar catalogus

FENGYUN 1C DEB

ActiefSSO
NORAD 37693·DEBRIS·🇨🇳 China

Gelanceerd May 10, 1999 vanaf Taiyuan Satellite Launch Center

Loading…

Volgende Passages (komende 24 uur)

TLE

VerouderendSource: Space-Track

Epoch: Sep 9, 2026, 05:13 UTC

1 37693U 99025ELJ 26252.21737476  .00000695  00000-0  41539-3 0  9992
2 37693  98.7055 247.5817 0072574  31.8225  27.8275 14.08989902659577

Volg FENGYUN 1C DEB in realtime met AllMySat

Download on the App Store